Regional Weather Roundup
Issued by NWS

Home | Current Version | Previous Version | Graphics & Text | Print | Product List | Glossary Off
Versions: 1 2 3 4 5 6 7 8 9 10 11 12 13 14 15 16 17 18 19 20 21 22 23 24 25 26 27 28 29 30 31 32 33 34 35 36 37 38 39 40 41 42 43 44 45 46 47 48 49 50

192
ASUS43 KTOP 251459
RWRKS

WEATHER ROUNDUP FOR KANSAS
NATIONAL WEATHER SERVICE GOODLAND KS
1000 AM CDT THU MAY 25 2017

NOTE:  "FAIR" INDICATES FEW OR NO CLOUDS BELOW 12,000 FEET WITH NO
SIGNIFICANT WEATHER AND/OR OBSTRUCTIONS TO VISIBILITY.

KSZ001>006-013>018-027>032-041>047-251600-
NORTHWEST KANSAS

CITY           SKY/WX    TMP DP  RH WIND       PRES   REMARKS
GOODLAND       MOSUNNY   70  49  47 N15       29.52F
HAYS           SUNNY     63  49  60 S17       29.55F
HILL CITY      MOSUNNY   61  49  64 S8        29.56R
RUSSELL        SUNNY     63  48  58 S18G28    29.54F
$$

KSZ061>065-074>080-084>089-251600-
SOUTHWEST KANSAS

CITY           SKY/WX    TMP DP  RH WIND       PRES   REMARKS
DODGE CITY     PTSUNNY   60  48  64 SW17G25   29.54F
ELKHART          N/A     76  43  31 W13         N/A
GARDEN CITY    SUNNY     64  49  57 S17       29.53S
GREAT BEND     SUNNY     65  49  56 S26       29.54F
LIBERAL        CLOUDY    63  50  62 S9        29.55F
$$

KSZ066>073-081>083-090>101-251600-
SOUTHEAST KANSAS

CITY           SKY/WX    TMP DP  RH WIND       PRES   REMARKS
CHANUTE        SUNNY     67  48  50 SE21G28   29.72S
COFFEYVILLE    SUNNY     66  52  60 S15G26    29.73F
HUTCHINSON     SUNNY     65  47  52 SE21G29   29.60F
MEDICINE LODGE   N/A     63  47  55 S13G18    29.62R
NEWTON         SUNNY     65  48  54 S17G25    29.65F
PARSONS        SUNNY     67  48  50 SE13G20   29.74S
WICHITA INTL   MOSUNNY   66  50  56 SE17      29.63F
WICHITA JABRA  SUNNY     65  48  54 SE18      29.64F
WINFIELD       SUNNY     67  49  52 SE17G29   29.66F
$$

KSZ007>012-019>026-033>040-048>060-102>105-251600-
NORTHEAST KANSAS

CITY           SKY/WX    TMP DP  RH WIND       PRES   REMARKS
CONCORDIA      SUNNY     63  49  60 S21G29    29.59F
EMPORIA        SUNNY     64  48  56 S20G25    29.68F
LAWRENCE       SUNNY     66  51  58 SE17      29.71S
MANHATTAN      SUNNY     67  48  50 S17G26    29.65F
OLATHE IND     SUNNY     65  50  58 S12G21    29.73S
OLATHE EXE     SUNNY     64  52  64 S14       29.72S
SALINA         SUNNY     67  48  50 S23G32    29.60F
TOPEKA BILLARD SUNNY     66  50  56 S16       29.69F
TOPEKA FORBES  SUNNY     67  50  54 S17G24    29.68F
$$




USA.gov is the U.S. government's official web portal to all federal, state and local government web resources and services.